Flag for Brazil Weather past 2 weeks in Macapá, Amapá, Brazil

Now
79 °F

Scattered clouds.


Feels Like: 82 °F
Forecast: 79 / 96 °F
Wind: 7 mph from Northeast

Location: Macapa Airport

Current Time: Sep 20, 2014 at 7:50:26 AM

Latest Report: Sep 20, 2014 at 7:00 AM


Visibility: N/A

Pressure: 29.92 "Hg

Humidity: 84%

Dew point: 73 °F

Location of MacapáLocation

Historic Weather in Macapá — Graph

°F

Macapá temperature yesterday

Maximum temperature yesterday: 95 °F (at 1:00 PM)
Minimum temperature yesterday: 75 °F (at 5:00 AM)
Average temperature yesterday: 85 °F

Past Weeks' High & Low Weather Summary

 TemperatureHumidityPressure
High97 °F (Sep 14, 2:00 PM)100% (Sep 8, 5:00 AM)29.98 "Hg (Sep 8, 5:00 AM)
Low75 °F (Sep 6, 5:00 AM)41% (Sep 10, 4:00 PM)29.56 "Hg (Sep 7, 2:00 PM)
Average85 °F71%29.88 "Hg
* Reported Sep 5 7:00 AM — Sep 20 7:00 AM, Macapá, Weather by CustomWeather, © 2014

Note: Actual official high and low records may vary slightly from our data, if they occured in-between our weather recording intervals... More about our weather records

Advertising

Macapá weather history for previous 24 hours

 ConditionsComfort  
Time TempWeatherWind HumidityBarometerVisibility
7:00 AM
Sep 20
79 °FScattered clouds.7 mph84%29.92 "HgN/A
6:00 AM77 °FPassing clouds.6 mph89%29.89 "HgN/A
5:00 AM77 °FPassing clouds.7 mph89%29.86 "HgN/A
4:00 AM79 °FPassing clouds.5 mph84%29.86 "HgN/A
3:00 AM79 °FPassing clouds.7 mph84%29.86 "HgN/A
2:00 AM79 °FPassing clouds.7 mph84%29.86 "HgN/A
1:00 AM82 °FPassing clouds.12 mph74%29.89 "HgN/A
12:00 AM82 °FPassing clouds.8 mph74%29.92 "HgN/A
11:00 PM
Sep 19
82 °FPassing clouds.8 mph74%29.92 "HgN/A
10:00 PM82 °FPassing clouds.8 mph74%29.92 "HgN/A
9:00 PM82 °FClear.7 mph74%29.89 "Hg10 mi
8:00 PM84 °FClear.7 mph66%29.86 "Hg10 mi
7:00 PM84 °FClear.14 mph66%29.86 "Hg10 mi
6:00 PM86 °FSunny.13 mph59%29.83 "Hg10 mi
5:00 PM91 °FPassing clouds.14 mph49%29.83 "HgN/A
4:00 PM93 °FPassing clouds.14 mph49%29.83 "HgN/A
3:00 PM95 °FPassing clouds.16 mph44%29.86 "HgN/A
2:00 PM95 °FPassing clouds.16 mph44%29.86 "HgN/A
1:00 PM95 °FPassing clouds.16 mph44%29.92 "HgN/A
12:00 PM93 °FPartly sunny.16 mph53%29.95 "HgN/A
11:00 AM91 °FScattered clouds.20 mph56%29.95 "HgN/A
10:00 AM91 °FPartly sunny.15 mph56%29.95 "HgN/A
9:00 AM88 °FScattered clouds.12 mph62%29.92 "HgN/A
8:00 AM82 °FScattered clouds.7 mph79%29.92 "HgN/A
7:00 AM77 °FScattered clouds.5 mph94%29.89 "HgN/A
Weather by CustomWeather, © 2014

See weather overviewHow to use our weather pages